Accueil
METAR-TAF:

METAR-TAF

Aéroports :

Person County Airport

Roxboro, Caroline du Nord, États-Unis

latitude: 36-17-06N, longitude: 078-59-03W, altitude: 186 m

Observation

Le bulletin a été fait il y a 18 minutes, à 16:35 UTC
Vent 7 kt de nord-est
Température 8°C
Humidité 81%
Pression 1028 hPa
Visibilité: 16.1 km
Nuages épars à une hauteur de 1500 ft
Nuages épars à une hauteur de 4800 ft
Ciel couvert à une hauteur de 7000 ft

METAR: KTDF 191635Z AUTO 04007KT 10SM SCT015 SCT048 OVC070 08/05 A3037 RMK AO2

Heure: 11:53 (16:53 UTC)


TAF: absent

Observations et prévisions météorologiques de plus de 4000 aéroports (messages METAR et TAF).

Les stations disponibles sont représentées par des disques jaunes et rouges sur la carte.

Passer la souris dessus pour voir le nom de la station.

Cliquer dessus pour voir les observations et prévisions météorologiques.

Pour changer de carte: cliquez sur les boutons verts avec une croix noire pour zoomer, sur le bouton vert avec un tiret pour effectuer un zoom arrière, ou sur les flèches vertes pour les cartes adjacentes.


METAR-TAF: